Location: New Canada
(47.1017°N, 68.5042°W)
Time: 16:15:26
(UTC+00:00)

KKS-1 - Pass Details

Date: 01 May 2024
Orbit: 628 x 639 km, 98.1° (Epoch: 21 May)

Event Time Altitude Azimuth Distance (km) Brightness Sun altitude
Rises 04:58:11 0° 3° (N) 2,957 ? -27.4°
Reaches altitude 10° 05:00:42 10° 350° (N) 2,042 ? -27.3°
Maximum altitude 05:04:17 25° 296° (WNW) 1,313 ? -27.2°
Enters shadow 05:04:24 24° 294° (WNW) 1,313 ? -27.2°
